DW4466 Weather Reports


Display with metric or nautical units.
time (UTC)temp
F
wind
direction
speed
MPH
gust
MPH
rain 1hr
in
rain 24hr
in
rain mn
in
humidity
%
barometer
mb
20260901234024 86 39 4.0 9.0 0.00 0.00 0.00 67 1011.9
20260901233553 86 46 5.0 9.0 0.00 0.00 0.00 67 1012.0
20260901233025 86 2 3.0 9.0 0.00 0.00 0.00 67 1012.0
20260901232504 87 32 3.0 10.0 0.00 0.00 0.00 66 1012.0
20260901232039 87 23 4.0 10.0 0.00 0.00 0.00 65 1012.0
20260901231513 87 39 6.0 12.0 0.00 0.00 0.00 65 1012.0
20260901231027 87 37 6.0 12.0 0.00 0.00 0.00 66 1012.1
20260901230558 87 42 4.0 9.0 0.00 0.00 0.00 65 1012.0
20260901230502 87 31 5.0 9.0 0.00 0.00 0.00 65 1012.0
20260901230038 87 58 5.0 10.0 0.00 0.00 0.00 65 1012.0
20260901225507 88 27 6.0 12.0 0.00 0.00 0.00 65 1012.1
20260901225039 88 37 6.0 13.0 0.00 0.00 0.00 64 1012.0
20260901224554 88 38 7.0 13.0 0.00 0.00 0.00 64 1012.0
20260901224029 89 48 5.0 10.0 0.00 0.00 0.00 64 1012.1
20260901223600 89 40 5.0 10.0 0.00 0.00 0.00 64 1012.1
20260901223502 89 53 6.0 10.0 0.00 0.00 0.00 64 1012.0
20260901223036 89 15 5.0 10.0 0.00 0.00 0.00 64 1012.1
20260901222505 89 36 7.0 10.0 0.00 0.00 0.00 65 1012.1
20260901222047 89 17 5.0 10.0 0.00 0.00 0.00 64 1012.0
20260901221516 89 10 7.0 12.0 0.00 0.00 0.00 62 1012.1
20260901221050 89 7 7.0 12.0 0.00 0.00 0.00 62 1012.2
20260901220523 90 36 6.0 12.0 0.00 0.00 0.00 61 1012.2
20260901220115 90 27 6.0 11.0 0.00 0.00 0.00 61 1012.2
20260901215513 90 38 7.0 11.0 0.00 0.00 0.00 61 1012.3
20260901215048 90 54 6.0 10.0 0.00 0.00 0.00 61 1012.3
20260901214520 89 24 5.0 9.0 0.00 0.00 0.00 63 1012.4
20260901214054 89 73 5.0 11.0 0.00 0.00 0.00 63 1012.4
20260901213530 89 44 6.0 11.0 0.00 0.00 0.00 63 1012.5
20260901213045 89 313 4.0 12.0 0.00 0.00 0.00 63 1012.4
20260901212514 89 12 4.0 11.0 0.00 0.00 0.00 62 1012.5
20260901212049 89 29 3.0 8.0 0.00 0.00 0.00 63 1012.4
20260901211518 89 31 2.0 5.0 0.00 0.00 0.00 63 1012.4
20260901211047 89 27 2.0 5.0 0.00 0.00 0.00 63 1012.4
20260901210510 90 17 3.0 10.0 0.00 0.00 0.00 63 1012.3
20260901210038 90 13 4.0 10.0 0.00 0.00 0.00 60 1012.3
20260901205513 90 46 3.0 11.0 0.00 0.00 0.00 59 1012.3
20260901205049 90 38 5.0 11.0 0.00 0.00 0.00 59 1012.3
20260901204519 91 17 4.0 13.0 0.00 0.00 0.00 58 1012.3
20260901204051 91 39 6.0 13.0 0.00 0.00 0.00 59 1012.3
20260901203520 91 41 4.0 12.0 0.00 0.00 0.00 59 1012.3
20260901203058 91 58 6.0 12.0 0.00 0.00 0.00 58 1012.3
20260901202532 92 59 7.0 12.0 0.00 0.00 0.00 57 1012.2
20260901202007 92 79 4.0 10.0 0.00 0.00 0.00 58 1012.4
20260901201537 92 11 4.0 10.0 0.00 0.00 0.00 59 1012.3
20260901201053 92 346 6.0 14.0 0.00 0.00 0.00 59 1012.4
20260901200527 92 11 4.0 14.0 0.00 0.00 0.00 62 1012.4
20260901200003 92 27 4.0 12.0 0.00 0.00 0.00 58 1012.5
20260901195536 92 36 4.0 11.0 0.00 0.00 0.00 62 1012.5
20260901195005 91 58 5.0 11.0 0.00 0.00 0.00 63 1012.6
20260901194535 91 359 4.0 11.0 0.00 0.00 0.00 64 1012.6
20260901194055 91 238 4.0 10.0 0.00 0.00 0.00 64 1012.7
20260901193523 91 308 3.0 13.0 0.00 0.00 0.00 65 1012.8
20260901193055 90 349 6.0 13.0 0.00 0.00 0.00 62 1012.9
20260901192531 90 14 6.0 12.0 0.00 0.00 0.00 63 1013.0
20260901192059 91 39 4.0 18.0 0.00 0.00 0.00 64 1013.0
20260901191532 91 19 3.0 11.0 0.00 0.00 0.00 63 1013.0
20260901191055 91 354 3.0 10.0 0.00 0.00 0.00 64 1013.1
20260901190523 91 42 3.0 10.0 0.00 0.00 0.00 66 1013.2
20260901190057 91 358 5.0 9.0 0.00 0.00 0.00 62 1013.4
20260901185530 91 37 3.0 11.0 0.00 0.00 0.00 66 1013.6
20260901185047 91 310 2.0 11.0 0.00 0.00 0.00 67 1013.6
20260901184518 90 354 5.0 10.0 0.00 0.00 0.00 65 1013.8
20260901184051 90 63 2.0 10.0 0.00 0.00 0.00 69 1013.9
20260901183521 89 27 6.0 10.0 0.00 0.00 0.00 69 1013.9
20260901183101 88 42 5.0 9.0 0.00 0.00 0.00 66 1013.9
20260901182513 88 360 3.0 9.0 0.00 0.00 0.00 70 1014.0
20260901182043 88 18 6.0 11.0 0.00 0.00 0.00 67 1014.1
20260901181514 88 61 6.0 14.0 0.00 0.00 0.00 67 1014.1
20260901181045 88 67 8.0 14.0 0.00 0.00 0.00 67 1013.9
20260901180517 88 18 1.0 4.0 0.00 0.00 0.00 71 1013.9
20260901180051 88 34 0.0 8.0 0.00 0.00 0.00 69 1013.8
20260901175529 88 19 1.0 7.0 0.00 0.00 0.00 69 1013.7
20260901175059 89 31 3.0 12.0 0.00 0.00 0.00 68 1013.6
20260901175002 89 61 3.0 12.0 0.00 0.00 0.00 67 1013.7
20260901174546 89 12 4.0 12.0 0.00 0.00 0.00 69 1013.7
20260901174008 89 48 4.0 10.0 0.00 0.00 0.00 67 1013.8
20260901173541 90 6 3.0 10.0 0.00 0.00 0.00 66 1013.6
20260901173021 90 65 2.0 12.0 0.00 0.00 0.00 66 1013.7
20260901172529 89 57 6.0 12.0 0.00 0.00 0.00 67 1013.8
20260901172008 89 34 5.0 11.0 0.00 0.00 0.00 69 1013.9
20260901171542 89 336 6.0 11.0 0.00 0.00 0.00 66 1013.9
20260901171009 90 345 3.0 7.0 0.00 0.00 0.00 66 1014.0
20260901170541 90 27 1.0 5.0 0.00 0.00 0.00 67 1014.0
20260901170012 89 261 0.0 3.0 0.00 0.00 0.00 70 1013.9
20260901165546 89 279 0.0 6.0 0.00 0.00 0.00 71 1013.9
20260901165015 88 309 3.0 6.0 0.00 0.00 0.00 70 1014.1
20260901164547 88 284 0.0 4.0 0.00 0.00 0.00 69 1014.2
20260901164018 87 2 0.0 9.0 0.00 0.00 0.00 70 1014.2
20260901163541 88 24 5.0 9.0 0.00 0.00 0.00 68 1014.4
20260901163011 88 36 3.0 8.0 0.00 0.00 0.00 68 1014.4
20260901162549 88 312 2.0 7.0 0.00 0.00 0.00 70 1014.4
20260901162025 88 28 3.0 13.0 0.00 0.00 0.00 69 1014.5
20260901161608 88 48 7.0 14.0 0.00 0.00 0.00 67 1014.5
20260901161029 88 58 6.0 14.0 0.00 0.00 0.00 71 1014.4
20260901160545 88 65 7.0 12.0 0.00 0.00 0.00 70 1014.4
20260901160015 88 59 6.0 11.0 0.00 0.00 0.00 70 1014.4
20260901155544 87 54 4.0 11.0 0.00 0.00 0.00 72 1014.4
20260901155015 87 29 3.0 10.0 0.00 0.00 0.00 69 1014.5
20260901154556 88 346 5.0 10.0 0.00 0.00 0.00 68 1014.6
20260901154021 88 230 3.0 9.0 0.00 0.00 0.00 68 1014.6
20260901153555 88 21 3.0 9.0 0.00 0.00 0.00 68 1014.6
20260901153026 88 51 3.0 8.0 0.00 0.00 0.00 68 1014.6
20260901152544 88 27 2.0 8.0 0.00 0.00 0.00 73 1014.6
20260901152017 87 306 1.0 7.0 0.00 0.00 0.00 71 1014.7
20260901151553 87 328 3.0 9.0 0.00 0.00 0.00 71 1014.7
20260901151030 87 24 3.0 9.0 0.00 0.00 0.00 72 1014.8
20260901150559 86 312 0.0 5.0 0.00 0.00 0.00 72 1014.8
20260901150025 86 294 2.0 8.0 0.00 0.00 0.00 72 1014.8
20260901145549 86 30 4.0 8.0 0.00 0.00 0.00 73 1014.8
20260901145017 85 338 1.0 8.0 0.00 0.00 0.00 74 1014.8
20260901144553 85 347 2.0 7.0 0.00 0.00 0.00 74 1014.9
20260901144029 85 34 2.0 7.0 0.00 0.00 0.00 76 1014.8
20260901143542 85 47 2.0 7.0 0.00 0.00 0.00 76 1014.8
20260901143016 84 57 3.0 8.0 0.00 0.00 0.00 74 1014.8
20260901142546 84 14 3.0 8.0 0.00 0.00 0.00 76 1014.9
20260901142016 84 21 2.0 4.0 0.00 0.00 0.00 76 1015.0
20260901141551 83 352 2.0 6.0 0.00 0.00 0.00 77 1015.1
20260901141031 83 65 3.0 8.0 0.00 0.00 0.00 75 1015.0
20260901140558 84 48 3.0 9.0 0.00 0.00 0.00 79 1015.0
20260901140026 84 27 4.0 9.0 0.00 0.00 0.00 77 1015.0
20260901135600 83 53 4.0 10.0 0.00 0.00 0.00 76 1015.1
20260901135503 83 32 4.0 10.0 0.00 0.00 0.00 76 1015.0
20260901135035 83 33 7.0 10.0 0.00 0.00 0.00 76 1014.9
20260901134505 83 356 4.0 8.0 0.00 0.00 0.00 77 1014.9
20260901134036 82 50 2.0 8.0 0.00 0.00 0.00 80 1014.9
20260901133510 82 30 2.0 5.0 0.00 0.00 0.00 80 1015.0
20260901133042 81 23 1.0 5.0 0.00 0.00 0.00 81 1015.0
20260901132514 81 40 0.0 4.0 0.00 0.00 0.00 82 1015.1
20260901132049 80 17 2.0 4.0 0.00 0.00 0.00 83 1015.3
20260901131524 80 48 1.0 4.0 0.00 0.00 0.00 84 1015.2
20260901131058 79 38 2.0 4.0 0.00 0.00 0.00 87 1015.4
20260901130516 78 360 1.0 4.0 0.00 0.00 0.00 89 1015.3
20260901130056 78 21 1.0 4.0 0.00 0.00 0.00 89 1015.4
20260901125519 77 50 1.0 4.0 0.00 0.00 0.00 91 1015.5
20260901125046 76 19 0.0 4.0 0.00 0.00 0.00 94 1015.4
20260901124520 75 50 1.0 4.0 0.00 0.00 0.00 96 1015.5
20260901124050 75 38 1.0 3.0 0.00 0.00 0.00 98 1015.5
20260901123513 74 38 1.0 3.0 0.00 0.00 0.00 99 1015.6
20260901123047 74 38 0.0 3.0 0.00 0.00 0.00 98 1015.7
20260901122514 73 38 1.0 3.0 0.00 0.00 0.00 99 1015.7
20260901122048 73 55 0.0 2.0 0.00 0.00 0.00 99 1015.8
20260901121519 73 55 0.0 0.0 0.00 0.00 0.00 99 1015.8
20260901121053 73 55 0.0 0.0 0.00 0.00 0.00 99 1015.7
20260901120524 72 55 0.0 0.0 0.00 0.00 0.00 99 1015.7
20260901120100 72 55 0.0 0.0 0.00 0.00 0.00 99 1015.6
20260901120002 72 55 0.0 0.0 0.00 0.00 0.00 99 1015.6
20260901115538 72 55 0.0 0.0 0.00 0.00 0.00 99 1015.5
20260901115014 72 55 0.0 0.0 0.00 0.00 0.00 99 1015.4
20260901114622 72 55 0.0 0.0 0.00 0.00 0.00 99 1015.2
20260901114020 72 55 0.0 1.0 0.00 0.00 0.00 99 1015.2
20260901113555 72 55 0.0 2.0 0.00 0.00 0.00 99 1015.1
20260901113026 71 55 1.0 2.0 0.00 0.00 0.00 99 1015.0
20260901112557 72 318 0.0 2.0 0.00 0.00 0.00 99 1014.9
20260901112501 72 318 0.0 2.0 0.00 0.00 0.00 99 1014.9
20260901112036 72 284 0.0 0.0 0.00 0.00 0.00 99 1014.9
20260901111508 72 284 0.0 0.0 0.00 0.00 0.00 99 1014.9
20260901111029 72 284 0.0 0.0 0.00 0.00 0.00 99 1014.9
20260901110559 72 284 0.0 0.0 0.00 0.00 0.00 99 1015.0
20260901110026 72 284 0.0 0.0 0.00 0.00 0.00 99 1014.9
20260901105558 72 284 0.0 0.0 0.00 0.00 0.00 99 1014.9
20260901105036 72 284 0.0 0.0 0.00 0.00 0.00 99 1014.9
20260901104507 72 284 0.0 0.0 0.00 0.00 0.00 99 1014.9
20260901104032 72 284 0.0 0.0 0.00 0.00 0.00 99 1014.8
20260901103509 72 42 0.0 0.0 0.00 0.00 0.00 99 1014.8
20260901103043 72 42 0.0 0.0 0.00 0.00 0.00 99 1014.7
20260901102514 72 42 0.0 0.0 0.00 0.00 0.00 98 1014.8
20260901102053 72 42 0.0 0.0 0.00 0.00 0.00 98 1014.8
20260901101531 72 42 0.0 0.0 0.00 0.00 0.00 98 1014.8
20260901101053 72 42 0.0 0.0 0.00 0.00 0.00 98 1014.8
20260901100526 72 42 0.0 0.0 0.00 0.00 0.00 98 1014.8
20260901095534 72 271 0.0 0.0 0.00 0.00 0.00 99 1014.6
20260901095003 72 271 0.0 0.0 0.00 0.00 0.00 98 1014.7
20260901094540 72 271 0.0 0.0 0.00 0.00 0.00 99 1014.7
20260901094050 72 271 0.0 0.0 0.00 0.00 0.00 99 1014.8
20260901093519 72 271 0.0 0.0 0.00 0.00 0.00 99 1014.8
20260901093052 72 271 0.0 0.0 0.00 0.00 0.00 99 1014.7
20260901092521 72 271 0.0 0.0 0.00 0.00 0.00 98 1014.7
20260901092054 72 271 0.0 0.0 0.00 0.00 0.00 98 1014.7
20260901091521 72 271 0.0 0.0 0.00 0.00 0.00 98 1014.6
20260901091053 72 271 0.0 0.0 0.00 0.00 0.00 98 1014.6
20260901090505 72 271 0.0 0.0 0.00 0.00 0.00 98 1014.6
20260901090048 72 271 0.0 0.0 0.00 0.00 0.00 99 1014.6
20260901085516 72 261 0.0 0.0 0.00 0.00 0.00 99 1014.7
20260901085047 72 5 0.0 0.0 0.00 0.00 0.00 98 1015.0
20260901084521 72 5 0.0 0.0 0.00 0.00 0.00 98 1015.0
20260901084053 72 5 0.0 0.0 0.00 0.00 0.00 98 1015.1
20260901083530 72 5 0.0 0.0 0.00 0.00 0.00 99 1015.1
20260901083100 72 5 0.0 0.0 0.00 0.00 0.00 98 1015.1
20260901083002 72 5 0.0 0.0 0.00 0.00 0.00 98 1015.1
20260901082517 72 5 0.0 0.0 0.00 0.00 0.00 98 1015.3
20260901082053 72 5 0.0 0.0 0.00 0.00 0.00 98 1015.3
20260901081523 72 5 0.0 0.0 0.00 0.00 0.00 98 1015.2
20260901081055 73 300 0.0 0.0 0.00 0.00 0.00 98 1015.2
20260901080533 73 300 0.0 0.0 0.00 0.00 0.00 98 1015.0
20260901080051 73 341 0.0 1.0 0.00 0.00 0.00 98 1014.9
20260901075523 73 341 0.0 2.0 0.00 0.00 0.00 98 1015.0
20260901075055 73 329 0.0 2.0 0.00 0.00 0.00 98 1015.0
20260901074531 72 326 0.0 0.0 0.00 0.00 0.00 98 1014.9
20260901074004 72 327 0.0 0.0 0.00 0.00 0.00 98 1014.9
20260901073519 72 327 0.0 0.0 0.00 0.00 0.00 98 1014.9
20260901073059 73 259 0.0 0.0 0.00 0.00 0.00 98 1014.9
20260901072523 73 259 0.0 0.0 0.00 0.00 0.00 98 1015.0
20260901072057 73 259 0.0 0.0 0.00 0.00 0.00 98 1014.9
20260901071533 73 265 0.0 0.0 0.00 0.00 0.00 98 1014.9
20260901071045 73 248 0.0 0.0 0.00 0.00 0.00 98 1015.0
20260901070517 73 249 0.0 0.0 0.00 0.00 0.00 98 1015.0
20260901065523 73 281 0.0 0.0 0.00 0.00 0.00 98 1015.1
20260901065059 73 281 0.0 0.0 0.00 0.00 0.00 98 1015.1
20260901065004 73 281 0.0 0.0 0.00 0.00 0.00 98 1015.1
20260901064535 73 281 0.0 0.0 0.00 0.00 0.00 98 1015.2
20260901064047 73 281 0.0 0.0 0.00 0.00 0.00 98 1015.2
20260901063518 73 281 0.0 0.0 0.00 0.00 0.00 98 1015.2
20260901063049 73 281 0.0 0.0 0.00 0.00 0.00 98 1015.2
20260901062519 73 281 0.0 0.0 0.00 0.00 0.00 98 1015.3
20260901062055 73 281 0.0 0.0 0.00 0.00 0.00 98 1015.3
20260901061529 73 285 0.0 0.0 0.00 0.00 0.00 98 1015.4
20260901061042 73 276 0.0 0.0 0.00 0.00 0.00 98 1015.6
20260901060514 73 276 0.0 0.0 0.00 0.00 0.00 98 1015.6
20260901060045 73 276 0.0 0.0 0.00 0.00 0.00 98 1015.6
20260901055520 73 276 0.0 0.0 0.00 0.00 0.00 98 1015.7
20260901055054 73 276 0.0 0.0 0.00 0.00 0.00 98 1015.7
20260901054527 73 276 0.0 0.0 0.00 0.00 0.00 98 1015.7
20260901054005 73 276 0.0 0.0 0.00 0.00 0.00 98 1015.8
20260901053542 73 276 0.0 0.0 0.00 0.00 0.00 98 1015.8
20260901053018 73 276 0.0 0.0 0.00 0.00 0.00 98 1015.9
20260901052553 73 276 0.0 0.0 0.00 0.00 0.00 98 1016.0
20260901052020 73 276 0.0 0.0 0.00 0.00 0.00 98 1015.9
20260901051555 73 276 0.0 0.0 0.00 0.00 0.00 98 1016.0
20260901051012 73 276 0.0 0.0 0.00 0.00 0.00 98 1016.0
20260901050547 73 276 0.0 1.0 0.00 0.00 0.00 98 1016.1
20260901050015 74 276 0.0 0.0 0.00 0.00 0.00 97 1016.1
20260901045546 74 276 0.0 0.0 0.00 0.00 0.00 98 1016.1
20260901045020 74 276 0.0 2.0 0.00 0.00 0.00 98 1016.1
20260901044600 74 276 0.0 2.0 0.00 0.00 0.00 98 1016.1
20260901044031 74 276 0.0 0.0 0.00 0.00 0.00 97 1016.1
20260901043559 74 276 0.0 0.0 0.00 0.00 0.00 97 1016.0
20260901043501 74 276 0.0 0.0 0.00 0.00 0.00 97 1016.0
20260901043029 74 276 0.0 0.0 0.00 0.00 0.00 97 1016.1
20260901042506 74 276 0.0 1.0 0.00 0.00 0.00 97 1016.2
20260901042040 74 276 0.0 2.0 0.00 0.00 0.00 97 1016.1
20260901041523 74 270 0.0 2.0 0.00 0.00 0.00 97 1016.2
20260901041052 74 272 0.0 2.0 0.00 0.00 0.00 97 1016.4
20260901040603 74 290 0.0 2.0 0.00 0.00 0.00 97 1016.4
20260901040503 74 290 0.0 2.0 0.00 0.00 0.00 97 1016.3
20260901040038 74 287 0.0 0.0 0.00 0.00 0.00 97 1016.5
20260901035506 74 287 0.0 0.0 0.00 0.00 0.00 97 1016.3
20260901035038 74 286 0.0 0.0 0.00 0.00 0.00 97 1016.4
20260901034517 74 286 0.0 0.0 0.00 0.00 0.00 97 1016.5
20260901034046 74 286 0.0 0.0 0.00 0.00 0.00 97 1016.5
20260901033520 74 286 0.0 0.0 0.00 0.00 0.00 97 1016.4
20260901033115 74 286 0.0 0.0 0.00 0.00 0.00 97 1016.4
20260901032530 74 286 0.0 0.0 0.00 0.00 0.00 97 1016.4
20260901032006 74 286 0.0 0.0 0.00 0.00 0.00 97 1016.4
20260901031541 74 286 0.0 0.0 0.00 0.00 0.00 97 1016.4
20260901031010 74 286 0.0 0.0 0.00 0.00 0.00 97 1016.6
20260901030542 74 286 0.0 0.0 0.00 0.00 0.00 97 1016.6
20260901030025 74 286 0.0 0.0 0.00 0.00 0.00 97 1016.6
20260901025547 74 286 0.0 0.0 0.00 0.00 0.00 97 1016.7
20260901025015 74 286 0.0 0.0 0.00 0.00 0.00 97 1016.8
20260901024547 74 286 0.0 0.0 0.00 0.00 0.00 97 1016.7
20260901024017 74 286 0.0 0.0 0.00 0.00 0.00 97 1016.7
20260901023548 74 286 0.0 0.0 0.00 0.00 0.00 97 1016.7
20260901023022 74 286 0.0 0.0 0.00 0.00 0.00 97 1016.7
20260901022552 74 286 0.0 0.0 0.00 0.00 0.00 97 1016.5
20260901022032 74 286 0.0 0.0 0.00 0.00 0.00 96 1016.5
20260901021603 74 286 0.0 0.0 0.00 0.00 0.00 96 1016.6
20260901021026 74 286 0.0 0.0 0.00 0.00 0.00 96 1016.6
20260901020601 74 286 0.0 0.0 0.00 0.00 0.00 96 1016.6
20260901020501 74 286 0.0 0.0 0.00 0.00 0.00 96 1016.6
20260901020035 74 286 0.0 0.0 0.00 0.00 0.00 95 1016.7
20260901015506 74 286 0.0 0.0 0.00 0.00 0.00 95 1016.8
20260901015040 74 286 0.0 0.0 0.00 0.00 0.00 95 1016.7
20260901014512 74 286 0.0 0.0 0.00 0.00 0.00 95 1016.6
20260901014028 75 286 0.0 0.0 0.00 0.00 0.00 94 1016.5
20260901013509 75 286 0.0 0.0 0.00 0.00 0.00 94 1016.6
20260901013052 75 286 0.0 0.0 0.00 0.00 0.00 94 1016.6
20260901012516 75 286 0.0 0.0 0.00 0.00 0.00 94 1016.4
20260901012047 75 286 0.0 0.0 0.00 0.00 0.00 94 1016.3
20260901011525 76 286 0.0 0.0 0.00 0.00 0.00 93 1016.2
20260901011058 76 286 0.0 0.0 0.00 0.00 0.00 93 1016.2
20260901011002 76 286 0.0 0.0 0.00 0.00 0.00 93 1016.1
20260901010536 76 286 0.0 0.0 0.00 0.00 0.00 93 1016.2
20260901010016 76 286 0.0 0.0 0.00 0.00 0.00 93 1016.3
20260901005542 76 286 0.0 0.0 0.00 0.00 0.00 93 1016.3
20260901005017 76 286 0.0 0.0 0.00 0.00 0.00 92 1016.0
20260901004546 76 286 0.0 0.0 0.00 0.00 0.00 92 1016.1
20260901004023 77 286 0.0 0.0 0.00 0.00 0.00 92 1016.0
20260901003600 77 286 0.0 0.0 0.00 0.00 0.00 92 1016.1
20260901003045 77 286 0.0 0.0 0.00 0.00 0.00 91 1016.1
20260901002602 77 277 0.0 0.0 0.00 0.00 0.00 91 1015.9
20260901002504 77 292 0.0 0.0 0.00 0.00 0.00 91 1016.0
20260901002036 77 298 0.0 0.0 0.00 0.00 0.00 90 1016.0
20260901001552 77 298 0.0 0.0 0.00 0.00 0.00 90 1015.9
20260901001027 78 298 0.0 0.0 0.00 0.00 0.00 90 1015.7
20260901000558 78 298 0.0 0.0 0.00 0.00 0.00 89 1015.7
20260901000501 78 298 0.0 0.0 0.00 0.00 0.00 89 1015.7
20260901000035 78 298 0.0 0.0 0.00 0.00 0.00 89 1015.8
20260831235504 79 298 0.0 0.0 0.00 0.00 0.00 88 1015.6
20260831235040 79 298 0.0 0.0 0.00 0.00 0.00 88 1015.6
20260831234600 79 298 0.0 0.0 0.00 0.00 0.00 88 1015.6